Location: Unspecified
(0.0000°N, 0.0000°E)
Time: 07:58:09
(UTC+00:00)

N. Korean satellite - Pass Details

Date: 09 December 2018
Orbit: 456 x 511 km, 97.2° (Epoch: 10 December)

Event Time Altitude Azimuth Distance (km) Brightness Sun altitude
Rises 18:32:21 0° 194° (SSW) 2,536 10.8 -9.2°
Reaches altitude 10° 18:34:52 10° 213° (SSW) 1,642 10.2 -9.8°
Maximum altitude 18:37:23 19° 258° (WSW) 1,197 9.7 -10.3°
Drops below altitude 10° 18:39:52 10° 304° (NW) 1,616 9.7 -10.9°
Sets 18:42:20 0° 323° (NW) 2,479 10.3 -11.5°
